| time (UTC) | temp C | wind direction | speed KPH | gust KPH | rain 1hr cm | rain 24hr cm | rain mn cm | humidity % | barometer mb |
| 20260906101143 | 23 | 349 | 3.2 | 4.8 | 0.00 | 0.00 | 0.00 | 93 | 1031.3 |
| 20260906100639 | 22 | 349 | 3.2 | 3.2 | 0.00 | 0.00 | 0.00 | 93 | 1031.3 |
| 20260906100133 | 22 | 348 | 3.2 | 4.8 | 0.00 | 0.00 | 0.00 | 94 | 1031.3 |
| 20260906095628 | 22 | 331 | 3.2 | 4.8 | 0.00 | 0.00 | 0.00 | 95 | 1031.3 |
| 20260906095124 | 22 | 345 | 3.2 | 4.8 | 0.00 | 0.00 | 0.00 | 95 | 1031.2 |
| 20260906094622 | 23 | 357 | 3.2 | 4.8 | 0.00 | 0.00 | 0.00 | 93 | 1031.5 |
| 20260906094119 | 23 | 350 | 3.2 | 3.2 | 0.00 | 0.00 | 0.00 | 92 | 1031.4 |
| 20260906093615 | 23 | 45 | 0.0 | 3.2 | 0.00 | 0.00 | 0.00 | 93 | 1031.5 |
| 20260906093114 | 23 | 172 | 0.0 | 3.2 | 0.00 | 0.00 | 0.00 | 93 | 1031.6 |
| 20260906092609 | 23 | 98 | 0.0 | 1.6 | 0.00 | 0.00 | 0.00 | 92 | 1031.5 |
| 20260906092105 | 23 | 14 | 1.6 | 4.8 | 0.00 | 0.00 | 0.00 | 93 | 1031.1 |
| 20260906091600 | 23 | 16 | 3.2 | 3.2 | 0.00 | 0.00 | 0.00 | 93 | 1031.4 |
| 20260906091056 | 23 | 0 | 3.2 | 4.8 | 0.00 | 0.00 | 0.00 | 93 | 1031.5 |
| 20260906090551 | 22 | 60 | 1.6 | 6.4 | 0.00 | 0.00 | 0.00 | 94 | 1031.5 |
| 20260906090046 | 22 | 28 | 4.8 | 6.4 | 0.00 | 0.00 | 0.00 | 96 | 1031.4 |
| 20260906085545 | 22 | 0 | 3.2 | 6.4 | 0.00 | 0.00 | 0.00 | 96 | 1031.4 |
| 20260906085044 | 22 | 15 | 3.2 | 4.8 | 0.00 | 0.00 | 0.00 | 97 | 1031.3 |
| 20260906084539 | 22 | 350 | 4.8 | 6.4 | 0.00 | 0.00 | 0.00 | 97 | 1031.3 |
| 20260906084038 | 22 | 345 | 3.2 | 4.8 | 0.00 | 0.00 | 0.00 | 97 | 1031.4 |
| 20260906083534 | 22 | 0 | 3.2 | 6.4 | 0.00 | 0.00 | 0.00 | 97 | 1031.5 |
| 20260906083034 | 22 | 344 | 4.8 | 6.4 | 0.00 | 0.00 | 0.00 | 96 | 1031.3 |
| 20260906082528 | 22 | 357 | 4.8 | 6.4 | 0.00 | 0.00 | 0.00 | 96 | 1031.7 |
| 20260906082024 | 22 | 22 | 3.2 | 4.8 | 0.00 | 0.00 | 0.00 | 96 | 1031.8 |
| 20260906081520 | 22 | 139 | 3.2 | 3.2 | 0.00 | 0.00 | 0.00 | 96 | 1031.5 |
| 20260906081016 | 22 | 165 | 0.0 | 0.0 | 0.00 | 0.00 | 0.00 | 95 | 1031.3 |
| 20260906080512 | 22 | 8 | 0.0 | 0.0 | 0.00 | 0.00 | 0.00 | 95 | 1031.4 |
| 20260906080008 | 22 | 345 | 0.0 | 1.6 | 0.00 | 0.00 | 0.00 | 95 | 1031.4 |
| 20260906075502 | 22 | 331 | 0.0 | 1.6 | 0.00 | 0.00 | 0.00 | 95 | 1031.5 |
| 20260906074956 | 22 | 345 | 0.0 | 1.6 | 0.00 | 0.00 | 0.00 | 95 | 1031.2 |
| 20260906074451 | 22 | 340 | 0.0 | 1.6 | 0.00 | 0.00 | 0.00 | 95 | 1031.2 |
| 20260906073949 | 22 | 172 | 0.0 | 0.0 | 0.00 | 0.00 | 0.00 | 95 | 1031.3 |
| 20260906073444 | 22 | 172 | 0.0 | 1.6 | 0.00 | 0.00 | 0.00 | 95 | 1031.1 |
| 20260906072941 | 22 | 180 | 0.0 | 1.6 | 0.00 | 0.00 | 0.00 | 94 | 1031.1 |
| 20260906072436 | 22 | 23 | 1.6 | 3.2 | 0.00 | 0.00 | 0.00 | 94 | 1030.9 |
| 20260906071932 | 22 | 0 | 0.0 | 3.2 | 0.00 | 0.00 | 0.00 | 94 | 1030.8 |
| 20260906071427 | 22 | 180 | 0.0 | 0.0 | 0.00 | 0.00 | 0.00 | 94 | 1030.6 |
| 20260906070923 | 22 | 180 | 0.0 | 0.0 | 0.00 | 0.00 | 0.00 | 94 | 1031.0 |
| 20260906070419 | 23 | 180 | 0.0 | 0.0 | 0.00 | 0.00 | 0.00 | 93 | 1031.2 |
| 20260906065914 | 23 | 0 | 0.0 | 0.0 | 0.00 | 0.00 | 0.00 | 93 | 1031.0 |
| 20260906065409 | 23 | 0 | 0.0 | 1.6 | 0.00 | 0.00 | 0.00 | 93 | 1031.1 |
| 20260906064904 | 23 | 349 | 3.2 | 3.2 | 0.00 | 0.00 | 0.00 | 92 | 1030.9 |
| 20260906064400 | 23 | 0 | 0.0 | 0.0 | 0.00 | 0.00 | 0.00 | 92 | 1031.0 |
| 20260906063854 | 23 | 352 | 0.0 | 1.6 | 0.00 | 0.00 | 0.00 | 92 | 1031.0 |
| 20260906063350 | 23 | 6 | 0.0 | 1.6 | 0.00 | 0.00 | 0.00 | 92 | 1031.1 |
| 20260906062845 | 23 | 350 | 3.2 | 3.2 | 0.00 | 0.00 | 0.00 | 91 | 1031.1 |
| 20260906062344 | 23 | 352 | 0.0 | 0.0 | 0.00 | 0.00 | 0.00 | 91 | 1031.2 |
| 20260906061840 | 23 | 353 | 0.0 | 1.6 | 0.00 | 0.00 | 0.00 | 92 | 1031.0 |
| 20260906061336 | 23 | 352 | 0.0 | 1.6 | 0.00 | 0.00 | 0.00 | 93 | 1031.1 |
| 20260906060831 | 23 | 356 | 3.2 | 3.2 | 0.00 | 0.00 | 0.00 | 92 | 1031.1 |
| 20260906060329 | 23 | 14 | 0.0 | 1.6 | 0.00 | 0.00 | 0.00 | 91 | 1031.2 |
| 20260906055824 | 23 | 344 | 0.0 | 3.2 | 0.00 | 0.00 | 0.00 | 91 | 1031.1 |
| 20260906055320 | 24 | 180 | 0.0 | 0.0 | 0.00 | 0.00 | 0.00 | 90 | 1031.1 |
| 20260906054815 | 24 | 166 | 0.0 | 0.0 | 0.00 | 0.00 | 0.00 | 88 | 1031.4 |
| 20260906054310 | 23 | 166 | 0.0 | 0.0 | 0.00 | 0.00 | 0.00 | 89 | 1031.3 |
| 20260906053806 | 23 | 166 | 0.0 | 0.0 | 0.00 | 0.00 | 0.00 | 90 | 1031.6 |
| 20260906053302 | 23 | 166 | 0.0 | 0.0 | 0.00 | 0.00 | 0.00 | 91 | 1031.5 |
| 20260906052756 | 23 | 166 | 0.0 | 0.0 | 0.00 | 0.00 | 0.00 | 92 | 1031.6 |
| 20260906052253 | 23 | 352 | 0.0 | 0.0 | 0.00 | 0.00 | 0.00 | 92 | 1031.6 |
| 20260906051750 | 23 | 352 | 0.0 | 1.6 | 0.00 | 0.00 | 0.00 | 92 | 1031.7 |
| 20260906051249 | 23 | 352 | 0.0 | 1.6 | 0.00 | 0.00 | 0.00 | 92 | 1031.9 |
| 20260906050745 | 23 | 342 | 3.2 | 3.2 | 0.00 | 0.00 | 0.00 | 92 | 1031.8 |
| 20260906050240 | 23 | 29 | 1.6 | 9.7 | 0.00 | 0.00 | 0.00 | 91 | 1031.9 |
| 20260906045738 | 23 | 26 | 8.0 | 8.0 | 0.00 | 0.00 | 0.00 | 92 | 1031.8 |
| 20260906045233 | 23 | 21 | 3.2 | 4.8 | 0.00 | 0.00 | 0.00 | 91 | 1031.8 |
| 20260906044728 | 23 | 0 | 3.2 | 4.8 | 0.00 | 0.00 | 0.00 | 88 | 1032.2 |
| 20260906044223 | 25 | 26 | 1.6 | 1.6 | 0.00 | 0.00 | 0.00 | 88 | 1032.2 |
| 20260906043720 | 25 | 98 | 0.0 | 0.0 | 0.00 | 0.00 | 0.00 | 88 | 1032.4 |
| 20260906043215 | 25 | 151 | 0.0 | 3.2 | 0.00 | 0.00 | 0.00 | 88 | 1032.2 |
| 20260906042715 | 24 | 151 | 0.0 | 0.0 | 0.00 | 0.00 | 0.00 | 86 | 1032.1 |
| 20260906042209 | 25 | 81 | 0.0 | 0.0 | 0.00 | 0.00 | 0.00 | 84 | 1032.2 |
| 20260906041704 | 25 | 12 | 0.0 | 0.0 | 0.00 | 0.00 | 0.00 | 83 | 1032.1 |
| 20260906041159 | 25 | 352 | 0.0 | 0.0 | 0.00 | 0.00 | 0.00 | 84 | 1032.2 |
| 20260906040655 | 25 | 0 | 1.6 | 3.2 | 0.00 | 0.00 | 0.00 | 84 | 1032.1 |
| 20260906040150 | 25 | 331 | 1.6 | 1.6 | 0.00 | 0.00 | 0.00 | 83 | 1032.2 |
| 20260906035645 | 25 | 8 | 0.0 | 3.2 | 0.00 | 0.00 | 0.00 | 82 | 1032.1 |
| 20260906035141 | 25 | 345 | 1.6 | 3.2 | 0.00 | 0.00 | 0.00 | 81 | 1031.8 |
| 20260906034635 | 25 | 354 | 1.6 | 3.2 | 0.00 | 0.00 | 0.00 | 81 | 1031.9 |
| 20260906034130 | 26 | 350 | 3.2 | 3.2 | 0.00 | 0.00 | 0.00 | 78 | 1031.8 |
| 20260906033625 | 26 | 353 | 0.0 | 0.0 | 0.00 | 0.00 | 0.00 | 77 | 1031.9 |
| 20260906033120 | 26 | 353 | 0.0 | 0.0 | 0.00 | 0.00 | 0.00 | 76 | 1032.1 |
| 20260906032617 | 26 | 353 | 0.0 | 0.0 | 0.00 | 0.00 | 0.00 | 76 | 1032.1 |
| 20260906032116 | 26 | 353 | 0.0 | 0.0 | 0.00 | 0.00 | 0.00 | 76 | 1031.9 |
| 20260906031612 | 26 | 353 | 0.0 | 0.0 | 0.00 | 0.00 | 0.00 | 76 | 1031.7 |
| 20260906031108 | 26 | 352 | 0.0 | 0.0 | 0.00 | 0.00 | 0.00 | 77 | 1031.9 |
| 20260906030607 | 26 | 340 | 0.0 | 3.2 | 0.00 | 0.00 | 0.00 | 77 | 1031.9 |
| 20260906025602 | 26 | 352 | 1.6 | 3.2 | 0.00 | 0.00 | 0.00 | 77 | 1032.1 |
| 20260906025100 | 26 | 345 | 3.2 | 3.2 | 0.00 | 0.00 | 0.00 | 79 | 1031.7 |
| 20260906024555 | 26 | 352 | 0.0 | 3.2 | 0.00 | 0.00 | 0.00 | 80 | 1031.7 |
| 20260906024049 | 26 | 342 | 0.0 | 1.6 | 0.00 | 0.00 | 0.00 | 81 | 1031.7 |
| 20260906023546 | 26 | 355 | 3.2 | 3.2 | 0.00 | 0.00 | 0.00 | 82 | 1031.5 |
| 20260906023040 | 26 | 145 | 0.0 | 0.0 | 0.00 | 0.00 | 0.00 | 82 | 1031.5 |
| 20260906022535 | 26 | 353 | 0.0 | 1.6 | 0.00 | 0.00 | 0.00 | 81 | 1031.4 |
| 20260906022031 | 26 | 353 | 1.6 | 1.6 | 0.00 | 0.00 | 0.00 | 81 | 1031.3 |
| 20260906021526 | 26 | 343 | 3.2 | 4.8 | 0.00 | 0.00 | 0.00 | 82 | 1031.6 |
| 20260906021020 | 26 | 337 | 1.6 | 6.4 | 0.00 | 0.00 | 0.00 | 82 | 1031.6 |
| 20260906020519 | 26 | 5 | 3.2 | 4.8 | 0.00 | 0.00 | 0.00 | 84 | 1031.7 |
| 20260906020019 | 26 | 352 | 4.8 | 6.4 | 0.00 | 0.00 | 0.00 | 86 | 1031.6 |
| 20260906015518 | 26 | 291 | 1.6 | 4.8 | 0.00 | 0.00 | 0.00 | 84 | 1031.7 |
| 20260906015018 | 26 | 337 | 3.2 | 4.8 | 0.00 | 0.00 | 0.00 | 82 | 1031.6 |
| 20260906014513 | 26 | 348 | 3.2 | 4.8 | 0.00 | 0.00 | 0.00 | 83 | 1031.6 |
| 20260906014009 | 26 | 0 | 3.2 | 4.8 | 0.00 | 0.00 | 0.00 | 84 | 1031.6 |
| 20260906013504 | 26 | 356 | 3.2 | 4.8 | 0.00 | 0.00 | 0.00 | 87 | 1031.6 |
| 20260906013000 | 26 | 353 | 0.0 | 1.6 | 0.00 | 0.00 | 0.00 | 88 | 1031.7 |
| 20260906012454 | 25 | 0 | 0.0 | 1.6 | 0.00 | 0.00 | 0.00 | 89 | 1031.8 |
| 20260906011954 | 25 | 0 | 0.0 | 0.0 | 0.00 | 0.00 | 0.00 | 89 | 1031.6 |
| 20260906011449 | 25 | 3 | 3.2 | 4.8 | 0.00 | 0.00 | 0.00 | 89 | 1031.6 |
| 20260906010944 | 25 | 5 | 3.2 | 4.8 | 0.00 | 0.00 | 0.00 | 89 | 1031.5 |
| 20260906010440 | 25 | 15 | 0.0 | 0.0 | 0.00 | 0.00 | 0.00 | 87 | 1031.4 |
| 20260906005936 | 25 | 15 | 0.0 | 0.0 | 0.00 | 0.00 | 0.00 | 87 | 1031.3 |
| 20260906005436 | 26 | 20 | 0.0 | 3.2 | 0.00 | 0.00 | 0.00 | 86 | 1031.1 |
| 20260906004934 | 26 | 8 | 0.0 | 3.2 | 0.00 | 0.00 | 0.00 | 84 | 1031.3 |
| 20260906004428 | 26 | 157 | 1.6 | 1.6 | 0.00 | 0.00 | 0.00 | 83 | 1031.2 |
| 20260906003925 | 26 | 98 | 1.6 | 6.4 | 0.00 | 0.00 | 0.00 | 83 | 1031.3 |
| 20260906003419 | 26 | 45 | 3.2 | 8.0 | 0.00 | 0.00 | 0.00 | 86 | 1031.3 |
| 20260906002915 | 26 | 26 | 3.2 | 3.2 | 0.00 | 0.00 | 0.00 | 87 | 1031.4 |
| 20260906002414 | 26 | 18 | 3.2 | 6.4 | 0.00 | 0.00 | 0.00 | 87 | 1031.3 |
| 20260906001909 | 26 | 63 | 1.6 | 4.8 | 0.00 | 0.00 | 0.00 | 87 | 1031.2 |
| 20260906001405 | 26 | 39 | 4.8 | 6.4 | 0.00 | 0.00 | 0.00 | 87 | 1031.3 |
| 20260906000905 | 26 | 60 | 1.6 | 4.8 | 0.00 | 0.00 | 0.00 | 87 | 1031.1 |
| 20260906000403 | 26 | 120 | 0.0 | 3.2 | 0.00 | 0.00 | 0.00 | 88 | 1031.2 |
| 20260905235855 | 26 | 114 | 0.0 | 4.8 | 0.00 | 0.00 | 0.00 | 88 | 1031.4 |
| 20260905235349 | 26 | 354 | 0.0 | 3.2 | 0.00 | 0.00 | 0.00 | 88 | 1031.2 |
| 20260905234845 | 26 | 24 | 3.2 | 4.8 | 0.00 | 0.00 | 0.00 | 88 | 1031.1 |
| 20260905234340 | 26 | 19 | 4.8 | 11.3 | 0.00 | 0.00 | 0.00 | 86 | 1031.3 |
| 20260905233835 | 27 | 352 | 3.2 | 12.9 | 0.00 | 0.00 | 0.00 | 86 | 1031.2 |
| 20260905233330 | 27 | 45 | 4.8 | 4.8 | 0.00 | 0.00 | 0.00 | 86 | 1031.2 |
| 20260905232829 | 27 | 21 | 3.2 | 3.2 | 0.00 | 0.00 | 0.00 | 86 | 1031.0 |
| 20260905232325 | 28 | 90 | 0.0 | 0.0 | 0.00 | 0.00 | 0.00 | 85 | 1031.2 |
| 20260905231821 | 28 | 0 | 0.0 | 3.2 | 0.00 | 0.00 | 0.00 | 84 | 1031.1 |
| 20260905231316 | 28 | 162 | 3.2 | 3.2 | 0.00 | 0.00 | 0.00 | 83 | 1030.9 |
| 20260905230812 | 29 | 162 | 3.2 | 3.2 | 0.00 | 0.00 | 0.00 | 82 | 1030.7 |
| 20260905230310 | 30 | 166 | 0.0 | 0.0 | 0.00 | 0.00 | 0.00 | 81 | 1031.0 |
| 20260905225809 | 30 | 114 | 0.0 | 0.0 | 0.00 | 0.00 | 0.00 | 79 | 1031.1 |
| 20260905225306 | 31 | 160 | 6.4 | 6.4 | 0.00 | 0.00 | 0.00 | 77 | 1031.1 |
| 20260905224804 | 31 | 160 | 0.0 | 3.2 | 0.00 | 0.00 | 0.00 | 77 | 1030.9 |
| 20260905224300 | 30 | 22 | 3.2 | 4.8 | 0.00 | 0.00 | 0.00 | 76 | 1031.0 |
| 20260905223755 | 31 | 14 | 3.2 | 4.8 | 0.00 | 0.00 | 0.00 | 75 | 1031.0 |
| 20260905223252 | 31 | 28 | 3.2 | 4.8 | 0.00 | 0.00 | 0.00 | 74 | 1030.5 |
| 20260905222748 | 32 | 352 | 3.2 | 3.2 | 0.00 | 0.00 | 0.00 | 72 | 1030.8 |
| 20260905222246 | 31 | 336 | 0.0 | 8.0 | 0.00 | 0.00 | 0.00 | 73 | 1030.7 |
| 20260905221742 | 32 | 6 | 4.8 | 6.4 | 0.00 | 0.00 | 0.00 | 70 | 1030.5 |
| 20260905221239 | 32 | 14 | 1.6 | 4.8 | 0.00 | 0.00 | 0.00 | 66 | 1030.9 |
| 20260905220735 | 32 | 18 | 4.8 | 8.0 | 0.00 | 0.00 | 0.00 | 67 | 1030.8 |
| 20260905220231 | 32 | 34 | 4.8 | 4.8 | 0.00 | 0.00 | 0.00 | 66 | 1030.9 |
| 20260905215730 | 32 | 354 | 0.0 | 3.2 | 0.00 | 0.00 | 0.00 | 67 | 1031.0 |
| 20260905215226 | 32 | 0 | 1.6 | 3.2 | 0.00 | 0.00 | 0.00 | 68 | 1031.2 |
| 20260905214721 | 32 | 12 | 3.2 | 6.4 | 0.00 | 0.00 | 0.00 | 68 | 1031.0 |
| 20260905214217 | 32 | 350 | 3.2 | 3.2 | 0.00 | 0.00 | 0.00 | 68 | 1031.1 |
| 20260905213712 | 31 | 24 | 3.2 | 6.4 | 0.00 | 0.00 | 0.00 | 70 | 1031.2 |
| 20260905213208 | 31 | 341 | 3.2 | 4.8 | 0.00 | 0.00 | 0.00 | 69 | 1031.2 |
| 20260905212703 | 31 | 352 | 8.0 | 8.0 | 0.00 | 0.00 | 0.00 | 70 | 1031.3 |
| 20260905212202 | 32 | 357 | 4.8 | 6.4 | 0.00 | 0.00 | 0.00 | 69 | 1031.3 |
| 20260905211657 | 32 | 0 | 8.0 | 8.0 | 0.00 | 0.00 | 0.00 | 68 | 1031.0 |
| 20260905211152 | 32 | 338 | 3.2 | 4.8 | 0.00 | 0.00 | 0.00 | 68 | 1031.2 |
| 20260905210649 | 32 | 339 | 3.2 | 6.4 | 0.00 | 0.00 | 0.00 | 67 | 1031.3 |
| 20260905210149 | 32 | 340 | 0.0 | 3.2 | 0.00 | 0.00 | 0.00 | 66 | 1031.5 |
| 20260905205648 | 33 | 339 | 3.2 | 3.2 | 0.00 | 0.00 | 0.00 | 65 | 1031.6 |
| 20260905205147 | 33 | 348 | 3.2 | 6.4 | 0.00 | 0.00 | 0.00 | 64 | 1031.4 |
| 20260905204646 | 33 | 353 | 0.0 | 3.2 | 0.00 | 0.00 | 0.00 | 63 | 1031.7 |
| 20260905204142 | 33 | 194 | 0.0 | 3.2 | 0.00 | 0.00 | 0.00 | 65 | 1031.1 |
| 20260905203637 | 33 | 18 | 3.2 | 4.8 | 0.00 | 0.00 | 0.00 | 64 | 1031.4 |
| 20260905203132 | 35 | 8 | 0.0 | 3.2 | 0.00 | 0.00 | 0.00 | 61 | 1031.6 |
| 20260905202628 | 33 | 355 | 0.0 | 3.2 | 0.00 | 0.00 | 0.00 | 64 | 1031.8 |
| 20260905202123 | 33 | 71 | 3.2 | 3.2 | 0.00 | 0.00 | 0.00 | 63 | 1031.7 |
| 20260905201619 | 32 | 203 | 0.0 | 1.6 | 0.00 | 0.00 | 0.00 | 66 | 1031.7 |
| 20260905201118 | 32 | 354 | 1.6 | 4.8 | 0.00 | 0.00 | 0.00 | 67 | 1031.8 |
| 20260905200614 | 32 | 349 | 3.2 | 3.2 | 0.00 | 0.00 | 0.00 | 67 | 1031.8 |
| 20260905200108 | 31 | 0 | 3.2 | 4.8 | 0.00 | 0.00 | 0.00 | 70 | 1031.9 |
| 20260905195602 | 31 | 319 | 3.2 | 4.8 | 0.00 | 0.00 | 0.00 | 72 | 1031.9 |
| 20260905195057 | 30 | 348 | 1.6 | 4.8 | 0.00 | 0.00 | 0.00 | 74 | 1032.1 |
| 20260905194557 | 30 | 337 | 1.6 | 6.4 | 0.00 | 0.00 | 0.00 | 75 | 1032.1 |
| 20260905194056 | 29 | 17 | 3.2 | 8.0 | 0.00 | 0.00 | 0.00 | 81 | 1032.2 |
| 20260905193551 | 28 | 5 | 3.2 | 6.4 | 0.00 | 0.00 | 0.00 | 85 | 1032.2 |
| 20260905193046 | 28 | 0 | 4.8 | 6.4 | 0.00 | 0.00 | 0.00 | 85 | 1032.2 |
| 20260905192542 | 27 | 19 | 3.2 | 6.4 | 0.00 | 0.00 | 0.00 | 85 | 1032.3 |
| 20260905192038 | 27 | 4 | 3.2 | 6.4 | 0.00 | 0.00 | 0.00 | 84 | 1032.3 |
| 20260905191536 | 28 | 345 | 4.8 | 4.8 | 0.00 | 0.00 | 0.00 | 84 | 1032.9 |
| 20260905191036 | 27 | 98 | 0.0 | 1.6 | 0.00 | 0.00 | 0.00 | 84 | 1032.7 |
| 20260905190533 | 27 | 151 | 0.0 | 0.0 | 0.00 | 0.00 | 0.00 | 85 | 1032.8 |
| 20260905190028 | 27 | 180 | 0.0 | 1.6 | 0.00 | 0.00 | 0.00 | 84 | 1033.0 |
| 20260905185527 | 27 | 114 | 0.0 | 0.0 | 0.00 | 0.00 | 0.00 | 83 | 1033.1 |
| 20260905185026 | 27 | 0 | 0.0 | 3.2 | 0.00 | 0.00 | 0.00 | 84 | 1033.2 |
| 20260905184521 | 27 | 180 | 0.0 | 0.0 | 0.00 | 0.00 | 0.00 | 83 | 1032.8 |
| 20260905184019 | 27 | 180 | 1.6 | 3.2 | 0.00 | 0.00 | 0.00 | 82 | 1032.5 |
| 20260905183514 | 27 | 180 | 0.0 | 3.2 | 0.00 | 0.00 | 0.00 | 82 | 1032.7 |
| 20260905183009 | 28 | 187 | 1.6 | 1.6 | 0.00 | 0.00 | 0.00 | 81 | 1032.6 |
| 20260905182508 | 28 | 172 | 0.0 | 0.0 | 0.00 | 0.00 | 0.00 | 81 | 1032.7 |
| 20260905182004 | 28 | 195 | 0.0 | 3.2 | 0.00 | 0.00 | 0.00 | 81 | 1033.0 |
| 20260905181459 | 28 | 174 | 1.6 | 4.8 | 0.00 | 0.00 | 0.00 | 78 | 1032.8 |
| 20260905180957 | 28 | 180 | 0.0 | 1.6 | 0.00 | 0.00 | 0.00 | 77 | 1032.7 |
| 20260905180452 | 28 | 180 | 1.6 | 4.8 | 0.00 | 0.00 | 0.00 | 76 | 1032.9 |
| 20260905175948 | 29 | 180 | 3.2 | 4.8 | 0.00 | 0.00 | 0.00 | 74 | 1033.2 |
| 20260905175447 | 30 | 188 | 1.6 | 3.2 | 0.00 | 0.00 | 0.00 | 72 | 1033.2 |
| 20260905174943 | 30 | 183 | 4.8 | 4.8 | 0.00 | 0.00 | 0.00 | 70 | 1033.1 |
| 20260905174438 | 30 | 184 | 3.2 | 8.0 | 0.00 | 0.00 | 0.00 | 69 | 1033.1 |
| 20260905173933 | 31 | 182 | 4.8 | 6.4 | 0.00 | 0.00 | 0.00 | 67 | 1033.1 |
| 20260905173430 | 32 | 178 | 4.8 | 6.4 | 0.00 | 0.00 | 0.00 | 65 | 1033.6 |
| 20260905172925 | 32 | 165 | 3.2 | 6.4 | 0.00 | 0.00 | 0.00 | 64 | 1033.5 |
| 20260905172422 | 32 | 190 | 3.2 | 4.8 | 0.00 | 0.00 | 0.00 | 65 | 1033.4 |
| 20260905171919 | 32 | 164 | 3.2 | 4.8 | 0.00 | 0.00 | 0.00 | 66 | 1033.2 |
| 20260905171415 | 31 | 187 | 1.6 | 3.2 | 0.00 | 0.00 | 0.00 | 65 | 1033.0 |
| 20260905170911 | 32 | 177 | 3.2 | 4.8 | 0.00 | 0.00 | 0.00 | 64 | 1033.5 |
| 20260905170407 | 31 | 180 | 1.6 | 3.2 | 0.00 | 0.00 | 0.00 | 65 | 1033.4 |
| 20260905165906 | 31 | 173 | 4.8 | 6.4 | 0.00 | 0.00 | 0.00 | 65 | 1033.4 |
| 20260905165401 | 31 | 175 | 0.0 | 3.2 | 0.00 | 0.00 | 0.00 | 64 | 1033.5 |
| 20260905164856 | 31 | 175 | 0.0 | 4.8 | 0.00 | 0.00 | 0.00 | 67 | 1033.6 |
| 20260905164351 | 31 | 186 | 1.6 | 3.2 | 0.00 | 0.00 | 0.00 | 67 | 1033.9 |
| 20260905163846 | 31 | 195 | 0.0 | 0.0 | 0.00 | 0.00 | 0.00 | 68 | 1033.8 |
| 20260905163343 | 31 | 173 | 0.0 | 0.0 | 0.00 | 0.00 | 0.00 | 69 | 1033.6 |
| 20260905162839 | 31 | 352 | 1.6 | 4.8 | 0.00 | 0.00 | 0.00 | 68 | 1033.7 |
| 20260905162338 | 31 | 353 | 0.0 | 1.6 | 0.00 | 0.00 | 0.00 | 70 | 1033.7 |
| 20260905161833 | 30 | 195 | 0.0 | 1.6 | 0.00 | 0.00 | 0.00 | 73 | 1034.2 |
| 20260905161332 | 30 | 180 | 0.0 | 1.6 | 0.00 | 0.00 | 0.00 | 73 | 1033.9 |
| 20260905160830 | 30 | 103 | 0.0 | 0.0 | 0.00 | 0.00 | 0.00 | 72 | 1034.0 |
| 20260905160325 | 30 | 165 | 0.0 | 0.0 | 0.00 | 0.00 | 0.00 | 72 | 1033.9 |
| 20260905155819 | 30 | 180 | 0.0 | 3.2 | 0.00 | 0.00 | 0.00 | 72 | 1034.0 |
| 20260905155313 | 30 | 120 | 1.6 | 4.8 | 0.00 | 0.00 | 0.00 | 72 | 1033.9 |
| 20260905154807 | 29 | 180 | 0.0 | 1.6 | 0.00 | 0.00 | 0.00 | 74 | 1033.9 |
| 20260905154303 | 30 | 195 | 0.0 | 0.0 | 0.00 | 0.00 | 0.00 | 76 | 1034.0 |
| 20260905153758 | 29 | 195 | 0.0 | 1.6 | 0.00 | 0.00 | 0.00 | 76 | 1033.9 |
| 20260905153254 | 28 | 168 | 0.0 | 1.6 | 0.00 | 0.00 | 0.00 | 77 | 1033.8 |
| 20260905152748 | 28 | 23 | 0.0 | 0.0 | 0.00 | 0.00 | 0.00 | 78 | 1033.8 |
| 20260905152243 | 28 | 180 | 0.0 | 3.2 | 0.00 | 0.00 | 0.00 | 79 | 1033.8 |
| 20260905151742 | 28 | 180 | 0.0 | 0.0 | 0.00 | 0.00 | 0.00 | 79 | 1034.0 |
| 20260905151239 | 29 | 8 | 0.0 | 4.8 | 0.00 | 0.00 | 0.00 | 78 | 1033.9 |
| 20260905150738 | 28 | 0 | 0.0 | 4.8 | 0.00 | 0.00 | 0.00 | 78 | 1034.0 |
| 20260905150238 | 28 | 172 | 0.0 | 0.0 | 0.00 | 0.00 | 0.00 | 79 | 1034.0 |
| 20260905145735 | 28 | 180 | 0.0 | 0.0 | 0.00 | 0.00 | 0.00 | 80 | 1034.2 |
| 20260905145231 | 28 | 180 | 0.0 | 0.0 | 0.00 | 0.00 | 0.00 | 80 | 1034.0 |
| 20260905144729 | 28 | 157 | 0.0 | 1.6 | 0.00 | 0.00 | 0.00 | 80 | 1034.0 |
| 20260905144225 | 27 | 66 | 0.0 | 3.2 | 0.00 | 0.00 | 0.00 | 81 | 1034.5 |
| 20260905143724 | 27 | 353 | 0.0 | 0.0 | 0.00 | 0.00 | 0.00 | 83 | 1033.9 |
| 20260905143223 | 27 | 157 | 0.0 | 1.6 | 0.00 | 0.00 | 0.00 | 84 | 1034.3 |
| 20260905142722 | 27 | 180 | 0.0 | 3.2 | 0.00 | 0.00 | 0.00 | 84 | 1033.9 |
| 20260905142216 | 27 | 180 | 0.0 | 3.2 | 0.00 | 0.00 | 0.00 | 84 | 1034.2 |
| 20260905141712 | 27 | 157 | 1.6 | 1.6 | 0.00 | 0.00 | 0.00 | 84 | 1034.2 |
| 20260905141209 | 27 | 131 | 0.0 | 0.0 | 0.00 | 0.00 | 0.00 | 84 | 1034.2 |
| 20260905140703 | 27 | 131 | 0.0 | 0.0 | 0.00 | 0.00 | 0.00 | 84 | 1034.3 |
| 20260905140157 | 27 | 131 | 0.0 | 0.0 | 0.00 | 0.00 | 0.00 | 84 | 1034.2 |
| 20260905135651 | 26 | 131 | 0.0 | 0.0 | 0.00 | 0.00 | 0.00 | 84 | 1034.2 |
| 20260905135142 | 26 | 52 | 3.2 | 4.8 | 0.00 | 0.00 | 0.00 | 84 | 1034.5 |
| 20260905134641 | 26 | 29 | 4.8 | 8.0 | 0.00 | 0.00 | 0.00 | 84 | 1034.3 |
| 20260905134140 | 26 | 33 | 3.2 | 3.2 | 0.00 | 0.00 | 0.00 | 85 | 1034.3 |
| 20260905133636 | 26 | 0 | 0.0 | 1.6 | 0.00 | 0.00 | 0.00 | 86 | 1034.4 |
| 20260905133136 | 26 | 21 | 3.2 | 3.2 | 0.00 | 0.00 | 0.00 | 86 | 1034.5 |
| 20260905132635 | 25 | 354 | 1.6 | 3.2 | 0.00 | 0.00 | 0.00 | 88 | 1034.4 |
| 20260905132130 | 25 | 57 | 0.0 | 3.2 | 0.00 | 0.00 | 0.00 | 89 | 1034.5 |
| 20260905131626 | 25 | 172 | 0.0 | 1.6 | 0.00 | 0.00 | 0.00 | 89 | 1034.5 |
| 20260905131120 | 24 | 180 | 0.0 | 0.0 | 0.00 | 0.00 | 0.00 | 90 | 1034.7 |
| 20260905130615 | 24 | 180 | 0.0 | 0.0 | 0.00 | 0.00 | 0.00 | 90 | 1034.7 |
| 20260905130115 | 24 | 180 | 0.0 | 0.0 | 0.00 | 0.00 | 0.00 | 90 | 1034.4 |
| 20260905125609 | 24 | 180 | 0.0 | 0.0 | 0.00 | 0.00 | 0.00 | 90 | 1034.8 |
| 20260905125105 | 24 | 15 | 0.0 | 1.6 | 0.00 | 0.00 | 0.00 | 90 | 1034.4 |
| 20260905124601 | 23 | 0 | 0.0 | 1.6 | 0.00 | 0.00 | 0.00 | 91 | 1034.4 |
| 20260905124057 | 23 | 355 | 1.6 | 3.2 | 0.00 | 0.00 | 0.00 | 92 | 1034.5 |
| 20260905123551 | 23 | 0 | 1.6 | 3.2 | 0.00 | 0.00 | 0.00 | 92 | 1034.5 |
| 20260905123048 | 23 | 15 | 0.0 | 1.6 | 0.00 | 0.00 | 0.00 | 93 | 1034.6 |
| 20260905122543 | 23 | 353 | 1.6 | 3.2 | 0.00 | 0.00 | 0.00 | 92 | 1034.4 |
| 20260905122038 | 23 | 0 | 0.0 | 0.0 | 0.00 | 0.00 | 0.00 | 93 | 1034.5 |
| 20260905121538 | 23 | 0 | 0.0 | 1.6 | 0.00 | 0.00 | 0.00 | 93 | 1034.6 |
| 20260905121033 | 23 | 15 | 0.0 | 0.0 | 0.00 | 0.00 | 0.00 | 94 | 1034.5 |
| 20260905120526 | 23 | 0 | 0.0 | 1.6 | 0.00 | 0.00 | 0.00 | 94 | 1034.5 |
| 20260905120022 | 22 | 0 | 1.6 | 3.2 | 0.00 | 0.00 | 0.00 | 94 | 1034.4 |
| 20260905115521 | 22 | 6 | 1.6 | 3.2 | 0.00 | 0.00 | 0.00 | 95 | 1034.2 |
| 20260905115016 | 22 | 7 | 1.6 | 1.6 | 0.00 | 0.00 | 0.00 | 95 | 1033.7 |
| 20260905114515 | 22 | 6 | 1.6 | 3.2 | 0.00 | 0.00 | 0.00 | 94 | 1033.9 |
| 20260905114014 | 22 | 348 | 0.0 | 3.2 | 0.00 | 0.00 | 0.00 | 94 | 1033.8 |
| 20260905113510 | 22 | 8 | 0.0 | 1.6 | 0.00 | 0.00 | 0.00 | 93 | 1033.7 |
| 20260905113005 | 22 | 0 | 0.0 | 0.0 | 0.00 | 0.00 | 0.00 | 94 | 1033.6 |
| 20260905112500 | 22 | 0 | 0.0 | 0.0 | 0.00 | 0.00 | 0.00 | 94 | 1033.7 |
| 20260905111955 | 22 | 0 | 0.0 | 1.6 | 0.00 | 0.00 | 0.00 | 94 | 1033.8 |
| 20260905111449 | 23 | 7 | 1.6 | 3.2 | 0.00 | 0.00 | 0.00 | 93 | 1033.6 |
| 20260905110943 | 23 | 99 | 0.0 | 0.0 | 0.00 | 0.00 | 0.00 | 93 | 1033.5 |
| 20260905110443 | 22 | 0 | 0.0 | 0.0 | 0.00 | 0.00 | 0.00 | 93 | 1033.4 |
| 20260905105937 | 22 | 0 | 1.6 | 3.2 | 0.00 | 0.00 | 0.00 | 93 | 1033.4 |
| 20260905105432 | 22 | 0 | 3.2 | 4.8 | 0.00 | 0.00 | 0.00 | 93 | 1033.4 |
| 20260905104931 | 23 | 0 | 3.2 | 4.8 | 0.00 | 0.00 | 0.00 | 92 | 1033.3 |
| 20260905104427 | 23 | 15 | 3.2 | 4.8 | 0.00 | 0.00 | 0.00 | 90 | 1033.3 |
| 20260905103922 | 23 | 337 | 0.0 | 3.2 | 0.00 | 0.00 | 0.00 | 89 | 1033.1 |
| 20260905103418 | 23 | 172 | 0.0 | 0.0 | 0.00 | 0.00 | 0.00 | 90 | 1033.2 |
| 20260905102913 | 23 | 157 | 0.0 | 0.0 | 0.00 | 0.00 | 0.00 | 89 | 1033.0 |
| 20260905102409 | 24 | 7 | 0.0 | 0.0 | 0.00 | 0.00 | 0.00 | 87 | 1032.9 |
| 20260905101904 | 24 | 7 | 0.0 | 0.0 | 0.00 | 0.00 | 0.00 | 86 | 1033.0 |